QPF
0.01 0.02 0.02 0.01 0.01 0.02 0.02 0.02 0.01 0.01 0.01 0.01 0.02 0.05 0.07 0.08 0.07 0.04 0.02 0.01 0.01 0.01 0.01 0.02 0.02 0.02 0.03 0.03 0.03 0.03 0.04 0.07 0.10 0.11 0.10 0.05 0.05 0.05 0.09 0.09 0.04 0.02 0.02
0.01 0.01 0.02 0.03 0.02 0.02 0.03 0.03 0.01 0.01 0.01 0.01 0.01 0.02 0.04 0.07 0.09 0.08 0.04 0.02 0.01 0.01 0.01 0.02 0.02 0.02 0.03 0.02 0.02 0.03 0.05 0.08 0.07 0.10 0.09 0.05 0.06 0.05 0.04 0.06 0.04 0.02 0.01
0.00 0.00 0.01 0.03 0.03 0.02 0.02 0.03 0.02 0.02 0.02 0.02 0.01 0.01 0.03 0.04 0.06 0.08 0.07 0.04 0.02 0.02 0.02 0.02 0.03 0.03 0.03 0.02 0.03 0.05 0.06 0.07 0.06 0.08 0.08 0.05 0.06 0.06 0.03 0.03 0.03 0.01 0.00
0.01 0.00 0.01 0.01 0.02 0.02 0.02 0.03 0.02 0.02 0.02 0.02 0.02 0.02 0.03 0.03 0.04 0.05 0.05 0.03 0.03 0.02 0.02 0.02 0.03 0.02 0.03 0.03 0.04 0.05 0.05 0.05 0.05 0.07 0.08 0.06 0.07 0.07 0.04 0.03 0.02 0.02 0.01
0.01 0.01 0.01 0.01 0.01 0.02 0.02 0.02 0.02 0.03 0.02 0.02 0.03 0.03 0.04 0.04 0.04 0.04 0.06 0.04 0.03 0.02 0.02 0.02 0.02 0.03 0.03 0.04 0.05 0.05 0.04 0.04 0.06 0.07 0.07 0.06 0.06 0.06 0.05 0.04 0.04 0.03 0.02
0.00 0.01 0.01 0.01 0.01 0.01 0.01 0.02 0.01 0.02 0.02 0.02 0.02 0.02 0.03 0.03 0.04 0.04 0.05 0.07 0.04 0.02 0.02 0.01 0.01 0.02 0.02 0.03 0.04 0.04 0.03 0.04 0.05 0.06 0.05 0.04 0.04 0.04 0.04 0.04 0.04 0.03 0.03
0.01 0.01 0.01 0.01 0.01 0.01 0.01 0.01 0.01 0.01 0.01 0.01 0.01 0.02 0.03 0.03 0.04 0.04 0.04 0.06 0.07 0.04 0.02 0.01 0.01 0.02 0.02 0.02 0.02 0.02 0.03 0.03 0.04 0.04 0.03 0.03 0.03 0.02 0.03 0.03 0.03 0.02 0.03
0.01 0.01 0.01 0.01 0.01 0.00 0.00 0.00 0.00 0.01 0.01 0.01 0.00 0.01 0.02 0.02 0.03 0.04 0.03 0.03 0.05 0.06 0.03 0.01 0.01 0.01 0.01 0.01 0.01 0.01 0.01 0.01 0.01 0.03 0.03 0.02 0.02 0.02 0.03 0.03 0.03 0.02 0.02
0.01 0.01 0.01 0.01 0.01 0.00 0.00 0.00 0.00 0.01 0.01 0.00 0.00 0.01 0.02 0.03 0.03 0.03 0.02 0.03 0.03 0.03 0.05 0.03 0.02 0.01 0.01 0.01 0.01 0.01 0.01 0.01 0.01 0.01 0.03 0.03 0.03 0.04 0.03 0.03 0.03 0.02 0.02
0.01 0.01 0.01 0.01 0.00 0.00 0.00 0.00 0.00 0.01 0.01 0.01 0.01 0.01 0.01 0.02 0.03 0.02 0.02 0.03 0.03 0.02 0.02 0.03 0.02 0.02 0.01 0.01 0.01 0.01 0.01 0.01 0.01 0.01 0.02 0.03 0.03 0.04 0.04 0.03 0.03 0.02 0.02
0.01 0.01 0.01 0.01 0.00 0.00 0.01 0.01 0.01 0.01 0.02 0.02 0.02 0.02 0.01 0.01 0.02 0.02 0.03 0.02 0.02 0.03 0.02 0.02 0.02 0.02 0.02 0.02 0.02 0.01 0.01 0.01 0.01 0.02 0.02 0.03 0.03 0.04 0.04 0.03 0.03 0.03 0.02
0.01 0.00 0.00 0.00 0.01 0.01 0.01 0.01 0.01 0.02 0.02 0.02 0.02 0.02 0.01 0.01 0.02 0.03 0.03 0.02 0.02 0.03 0.02 0.02 0.01 0.02 0.02 0.02 0.02 0.01 0.01 0.02 0.02 0.02 0.02 0.02 0.03 0.03 0.03 0.03 0.03 0.03 0.02
0.01 0.00 0.00 0.00 0.01 0.01 0.01 0.01 0.01 0.03 0.02 0.02 0.02 0.01 0.01 0.01 0.01 0.03 0.03 0.03 0.02 0.02 0.02 0.02 0.01 0.01 0.01 0.01 0.01 0.02 0.02 0.02 0.02 0.02 0.02 0.02 0.02 0.03 0.03 0.03 0.03 0.03 0.02
0.01 0.00 0.00 0.01 0.01 0.01 0.00 0.01 0.02 0.02 0.02 0.01 0.01 0.01 0.01 0.01 0.01 0.02 0.03 0.03 0.03 0.02 0.01 0.01 0.01 0.01 0.01 0.02 0.02 0.03 0.03 0.03 0.03 0.03 0.03 0.03 0.02 0.02 0.02 0.02 0.02 0.03 0.03
0.01 0.00 0.00 0.01 0.01 0.00 0.01 0.02 0.02 0.01 0.01 0.01 0.01 0.01 0.01 0.01 0.01 0.03 0.03 0.03 0.03 0.03 0.02 0.01 0.01 0.02 0.02 0.02 0.03 0.04 0.05 0.05 0.05 0.04 0.03 0.02 0.02 0.02 0.02 0.02 0.03 0.03 0.03
0.01 0.00 0.00 0.00 0.00 0.01 0.02 0.02 0.01 0.01 0.01 0.01 0.01 0.01 0.01 0.01 0.01 0.02 0.02 0.02 0.02 0.02 0.03 0.02 0.01 0.02 0.02 0.03 0.04 0.05 0.05 0.05 0.05 0.05 0.04 0.04 0.03 0.03 0.03 0.04 0.05 0.05 0.04
0.01 0.00 0.00 0.00 0.01 0.01 0.03 0.03 0.01 0.00 0.01 0.01 0.00 0.01 0.01 0.01 0.01 0.01 0.01 0.02 0.01 0.02 0.02 0.03 0.02 0.02 0.02 0.03 0.04 0.05 0.06 0.06 0.06 0.06 0.06 0.06 0.05 0.05 0.05 0.05 0.05 0.06 0.06
0.00 0.00 0.01 0.01 0.01 0.03 0.04 0.03 0.01 0.01 0.01 0.00 0.01 0.01 0.01 0.02 0.02 0.02 0.01 0.01 0.01 0.01 0.02 0.02 0.03 0.03 0.02 0.02 0.04 0.06 0.06 0.06 0.07 0.08 0.09 0.08 0.08 0.07 0.07 0.08 0.08 0.07 0.06
0.01 0.01 0.01 0.01 0.02 0.03 0.03 0.02 0.01 0.02 0.01 0.00 0.01 0.01 0.02 0.02 0.02 0.03 0.02 0.01 0.01 0.02 0.02 0.02 0.03 0.04 0.04 0.04 0.05 0.05 0.06 0.07 0.07 0.08 0.08 0.09 0.09 0.09 0.08 0.07 0.07 0.07 0.05
0.01 0.01 0.02 0.02 0.01 0.01 0.01 0.01 0.02 0.01 0.01 0.00 0.00 0.01 0.01 0.03 0.03 0.03 0.03 0.03 0.03 0.03 0.03 0.03 0.03 0.04 0.05 0.06 0.06 0.06 0.05 0.05 0.06 0.06 0.07 0.07 0.07 0.06 0.06 0.06 0.06 0.05 0.05
0.01 0.01 0.02 0.02 0.02 0.01 0.01 0.01 0.01 0.01 0.01 0.01 0.00 0.01 0.01 0.01 0.02 0.02 0.02 0.02 0.03 0.03 0.03 0.04 0.04 0.04 0.05 0.07 0.07 0.06 0.05 0.04 0.04 0.05 0.05 0.06 0.05 0.05 0.04 0.05 0.04 0.04 0.05
0.01 0.01 0.01 0.02 0.02 0.01 0.01 0.01 0.01 0.01 0.01 0.01 0.01 0.01 0.01 0.01 0.01 0.01 0.02 0.02 0.03 0.03 0.03 0.03 0.04 0.05 0.05 0.06 0.05 0.05 0.04 0.04 0.05 0.05 0.05 0.05 0.05 0.05 0.04 0.04 0.04 0.04 0.04
0.01 0.01 0.01 0.01 0.01 0.01 0.00 0.00 0.01 0.01 0.01 0.01 0.01 0.01 0.01 0.01 0.01 0.01 0.01 0.01 0.02 0.02 0.03 0.03 0.04 0.05 0.06 0.06 0.06 0.06 0.07 0.07 0.08 0.08 0.07 0.05 0.04 0.05 0.04 0.04 0.04 0.04 0.03
0.01 0.01 0.01 0.01 0.01 0.01 0.01 0.01 0.01 0.01 0.01 0.01 0.01 0.01 0.01 0.01 0.01 0.01 0.01 0.01 0.01 0.02 0.02 0.03 0.03 0.03 0.04 0.04 0.04 0.05 0.06 0.07 0.08 0.07 0.06 0.05 0.05 0.04 0.04 0.04 0.04 0.03 0.03
0.01 0.00 0.00 0.00 0.00 0.01 0.01 0.01 0.01 0.01 0.01 0.01 0.01 0.01 0.01 0.01 0.01 0.01 0.01 0.01 0.01 0.01 0.01 0.01 0.01 0.02 0.02 0.03 0.03 0.03 0.04 0.04 0.04 0.04 0.04 0.05 0.05 0.04 0.04 0.04 0.04 0.03 0.03
0.00 0.01 0.00 0.01 0.01 0.01 0.01 0.01 0.01 0.01 0.01 0.02 0.02 0.02 0.02 0.02 0.01 0.01 0.01 0.01 0.00 0.01 0.01 0.01 0.01 0.01 0.01 0.01 0.02 0.02 0.03 0.03 0.03 0.04 0.04 0.04 0.04 0.04 0.04 0.05 0.05 0.04 0.04
MSLP
1010.39 1010.82 1011.29 1011.78 1012.25 1012.69 1013.09 1013.45 1013.78 1014.08 1014.37 1014.65 1014.91 1015.13 1015.31 1015.45 1015.53 1015.58 1015.60 1015.62 1015.66 1015.73 1015.86 1016.03 1016.24 1016.45 1016.64 1016.78 1016.85 1016.82 1016.71 1016.51 1016.26 1015.99 1015.72 1015.48 1015.29 1015.18 1015.14 1015.18 1015.28 1015.44 1015.66
1010.48 1010.89 1011.34 1011.80 1012.25 1012.69 1013.10 1013.48 1013.85 1014.19 1014.53 1014.84 1015.12 1015.36 1015.55 1015.67 1015.75 1015.77 1015.77 1015.77 1015.79 1015.85 1015.96 1016.11 1016.30 1016.50 1016.69 1016.83 1016.89 1016.88 1016.78 1016.60 1016.36 1016.08 1015.80 1015.53 1015.31 1015.13 1015.01 1014.96 1014.97 1015.05 1015.18
1010.55 1010.98 1011.43 1011.89 1012.34 1012.78 1013.19 1013.59 1013.99 1014.36 1014.73 1015.07 1015.37 1015.63 1015.83 1015.96 1016.03 1016.06 1016.05 1016.04 1016.05 1016.10 1016.19 1016.32 1016.49 1016.66 1016.82 1016.94 1017.00 1016.98 1016.88 1016.71 1016.48 1016.22 1015.93 1015.65 1015.39 1015.17 1014.99 1014.85 1014.78 1014.76 1014.81
1010.55 1011.03 1011.52 1011.99 1012.46 1012.90 1013.33 1013.75 1014.15 1014.55 1014.93 1015.30 1015.62 1015.90 1016.11 1016.27 1016.35 1016.39 1016.40 1016.39 1016.40 1016.44 1016.51 1016.62 1016.75 1016.89 1017.01 1017.10 1017.12 1017.08 1016.97 1016.80 1016.58 1016.32 1016.04 1015.76 1015.48 1015.23 1015.00 1014.80 1014.65 1014.55 1014.52
1010.41 1010.97 1011.52 1012.04 1012.54 1013.00 1013.44 1013.87 1014.29 1014.70 1015.10 1015.48 1015.83 1016.13 1016.37 1016.55 1016.66 1016.73 1016.76 1016.77 1016.79 1016.82 1016.88 1016.95 1017.05 1017.14 1017.21 1017.24 1017.22 1017.14 1017.01 1016.83 1016.60 1016.35 1016.07 1015.79 1015.52 1015.25 1014.99 1014.75 1014.55 1014.38 1014.28
1010.10 1010.76 1011.39 1011.97 1012.51 1013.01 1013.48 1013.92 1014.35 1014.78 1015.20 1015.59 1015.96 1016.29 1016.56 1016.76 1016.91 1017.01 1017.07 1017.11 1017.14 1017.17 1017.21 1017.26 1017.31 1017.34 1017.35 1017.32 1017.24 1017.12 1016.95 1016.74 1016.51 1016.25 1015.98 1015.71 1015.43 1015.16 1014.89 1014.63 1014.40 1014.19 1014.04
1009.62 1010.38 1011.09 1011.75 1012.34 1012.88 1013.38 1013.85 1014.31 1014.75 1015.19 1015.61 1016.00 1016.35 1016.65 1016.90 1017.08 1017.21 1017.30 1017.36 1017.40 1017.43 1017.46 1017.47 1017.48 1017.46 1017.41 1017.31 1017.18 1017.00 1016.78 1016.54 1016.28 1016.01 1015.74 1015.47 1015.20 1014.94 1014.67 1014.41 1014.16 1013.94 1013.76
1009.00 1009.84 1010.63 1011.36 1012.02 1012.60 1013.14 1013.65 1014.13 1014.61 1015.07 1015.51 1015.93 1016.31 1016.64 1016.92 1017.14 1017.30 1017.41 1017.49 1017.54 1017.57 1017.58 1017.57 1017.53 1017.46 1017.35 1017.20 1017.01 1016.77 1016.51 1016.23 1015.94 1015.65 1015.37 1015.09 1014.83 1014.56 1014.31 1014.05 1013.80 1013.58 1013.39
1008.29 1009.20 1010.06 1010.85 1011.56 1012.20 1012.79 1013.33 1013.86 1014.36 1014.86 1015.33 1015.78 1016.19 1016.55 1016.85 1017.09 1017.28 1017.41 1017.49 1017.55 1017.57 1017.56 1017.53 1017.46 1017.35 1017.20 1017.00 1016.76 1016.47 1016.16 1015.84 1015.51 1015.19 1014.89 1014.60 1014.33 1014.07 1013.81 1013.56 1013.32 1013.10 1012.90
1007.58 1008.53 1009.43 1010.26 1011.02 1011.71 1012.35 1012.95 1013.51 1014.06 1014.59 1015.11 1015.58 1016.02 1016.40 1016.72 1016.97 1017.17 1017.30 1017.39 1017.44 1017.46 1017.44 1017.39 1017.29 1017.16 1016.97 1016.73 1016.45 1016.12 1015.77 1015.40 1015.03 1014.68 1014.35 1014.03 1013.75 1013.47 1013.21 1012.96 1012.72 1012.50 1012.31
1006.93 1007.89 1008.81 1009.67 1010.47 1011.21 1011.89 1012.54 1013.15 1013.75 1014.32 1014.86 1015.37 1015.82 1016.22 1016.55 1016.81 1017.00 1017.14 1017.22 1017.26 1017.27 1017.24 1017.17 1017.06 1016.91 1016.70 1016.43 1016.11 1015.75 1015.36 1014.95 1014.54 1014.14 1013.77 1013.42 1013.11 1012.81 1012.54 1012.28 1012.03 1011.81 1011.61
1006.38 1007.32 1008.25 1009.13 1009.96 1010.73 1011.46 1012.15 1012.81 1013.45 1014.06 1014.63 1015.16 1015.63 1016.03 1016.36 1016.62 1016.81 1016.94 1017.02 1017.05 1017.04 1017.00 1016.92 1016.80 1016.63 1016.40 1016.11 1015.77 1015.37 1014.94 1014.48 1014.03 1013.58 1013.16 1012.78 1012.43 1012.10 1011.81 1011.53 1011.27 1011.03 1010.82
1005.94 1006.86 1007.77 1008.66 1009.50 1010.31 1011.07 1011.80 1012.51 1013.18 1013.82 1014.42 1014.96 1015.44 1015.85 1016.18 1016.44 1016.63 1016.75 1016.82 1016.84 1016.83 1016.78 1016.69 1016.55 1016.36 1016.11 1015.79 1015.42 1014.98 1014.51 1014.00 1013.50 1013.00 1012.53 1012.10 1011.70 1011.35 1011.02 1010.72 1010.45 1010.19 1009.96
1005.59 1006.47 1007.37 1008.25 1009.11 1009.93 1010.73 1011.49 1012.22 1012.93 1013.59 1014.21 1014.76 1015.25 1015.66 1016.00 1016.26 1016.44 1016.56 1016.63 1016.65 1016.63 1016.58 1016.47 1016.32 1016.11 1015.83 1015.48 1015.06 1014.58 1014.05 1013.49 1012.92 1012.37 1011.85 1011.36 1010.92 1010.53 1010.17 1009.85 1009.55 1009.28 1009.03
1005.27 1006.12 1006.99 1007.87 1008.73 1009.57 1010.39 1011.18 1011.93 1012.66 1013.34 1013.96 1014.53 1015.03 1015.44 1015.79 1016.05 1016.25 1016.38 1016.46 1016.49 1016.47 1016.41 1016.30 1016.12 1015.88 1015.56 1015.16 1014.69 1014.15 1013.55 1012.93 1012.29 1011.67 1011.09 1010.55 1010.06 1009.63 1009.24 1008.89 1008.58 1008.29 1008.03
1004.92 1005.73 1006.58 1007.45 1008.32 1009.17 1010.01 1010.81 1011.59 1012.32 1013.01 1013.65 1014.23 1014.73 1015.16 1015.52 1015.81 1016.03 1016.19 1016.29 1016.34 1016.33 1016.27 1016.14 1015.94 1015.66 1015.30 1014.84 1014.30 1013.68 1013.01 1012.31 1011.60 1010.90 1010.25 1009.65 1009.11 1008.63 1008.21 1007.84 1007.50 1007.20 1006.93
1004.47 1005.25 1006.09 1006.95 1007.82 1008.69 1009.54 1010.36 1011.15 1011.90 1012.59 1013.24 1013.83 1014.35 1014.80 1015.19 1015.51 1015.77 1015.96 1016.10 1016.18 1016.19 1016.14 1016.00 1015.78 1015.46 1015.04 1014.51 1013.90 1013.20 1012.44 1011.65 1010.86 1010.08 1009.35 1008.68 1008.08 1007.55 1007.09 1006.68 1006.32 1006.00 1005.72
1003.89 1004.65 1005.48 1006.34 1007.22 1008.10 1008.96 1009.80 1010.60 1011.35 1012.06 1012.72 1013.32 1013.87 1014.35 1014.78 1015.14 1015.45 1015.70 1015.89 1016.00 1016.05 1016.01 1015.87 1015.63 1015.27 1014.79 1014.20 1013.51 1012.72 1011.88 1011.00 1010.12 1009.26 1008.44 1007.69 1007.02 1006.42 1005.90 1005.44 1005.04 1004.70 1004.41
1003.20 1003.94 1004.75 1005.61 1006.50 1007.40 1008.28 1009.13 1009.94 1010.72 1011.44 1012.12 1012.74 1013.31 1013.84 1014.31 1014.73 1015.09 1015.40 1015.64 1015.81 1015.89 1015.87 1015.74 1015.48 1015.09 1014.57 1013.92 1013.16 1012.30 1011.37 1010.41 1009.43 1008.48 1007.58 1006.74 1005.99 1005.31 1004.71 1004.19 1003.73 1003.35 1003.02
1002.41 1003.14 1003.94 1004.81 1005.71 1006.62 1007.52 1008.39 1009.23 1010.02 1010.77 1011.47 1012.12 1012.73 1013.30 1013.82 1014.29 1014.72 1015.09 1015.39 1015.60 1015.72 1015.73 1015.61 1015.35 1014.94 1014.39 1013.70 1012.88 1011.96 1010.97 1009.93 1008.87 1007.84 1006.84 1005.92 1005.06 1004.29 1003.60 1003.00 1002.47 1002.02 1001.65
1001.59 1002.30 1003.11 1003.99 1004.90 1005.83 1006.75 1007.65 1008.51 1009.33 1010.11 1010.84 1011.53 1012.18 1012.79 1013.36 1013.89 1014.37 1014.79 1015.14 1015.40 1015.56 1015.59 1015.49 1015.23 1014.83 1014.26 1013.54 1012.70 1011.74 1010.70 1009.60 1008.49 1007.38 1006.31 1005.29 1004.34 1003.47 1002.68 1001.98 1001.36 1000.83 1000.40
1000.80 1001.51 1002.31 1003.19 1004.12 1005.08 1006.03 1006.95 1007.85 1008.71 1009.52 1010.28 1011.01 1011.70 1012.35 1012.97 1013.54 1014.07 1014.53 1014.92 1015.22 1015.40 1015.46 1015.38 1015.14 1014.74 1014.18 1013.46 1012.61 1011.64 1010.58 1009.46 1008.31 1007.16 1006.02 1004.93 1003.90 1002.94 1002.05 1001.25 1000.54 999.93 999.43
1000.09 1000.79 1001.61 1002.50 1003.45 1004.43 1005.41 1006.37 1007.30 1008.20 1009.05 1009.86 1010.63 1011.35 1012.04 1012.69 1013.30 1013.85 1014.34 1014.75 1015.07 1015.27 1015.35 1015.28 1015.06 1014.68 1014.15 1013.45 1012.62 1011.67 1010.63 1009.51 1008.36 1007.19 1006.02 1004.88 1003.79 1002.76 1001.80 1000.92 1000.13 999.44 998.87
999.50 1000.22 1001.04 1001.95 1002.92 1003.92 1004.93 1005.93 1006.91 1007.85 1008.74 1009.59 1010.40 1011.16 1011.88 1012.55 1013.17 1013.73 1014.23 1014.65 1014.97 1015.18 1015.26 1015.21 1015.01 1014.65 1014.15 1013.49 1012.71 1011.80 1010.80 1009.73 1008.60 1007.45 1006.29 1005.15 1004.03 1002.97 1001.97 1001.04 1000.20 999.46 998.83
999.06 999.79 1000.63 1001.56 1002.56 1003.59 1004.63 1005.67 1006.69 1007.67 1008.60 1009.49 1010.33 1011.12 1011.86 1012.54 1013.16 1013.72 1014.21 1014.61 1014.92 1015.12 1015.20 1015.15 1014.97 1014.64 1014.18 1013.57 1012.85 1012.01 1011.08 1010.07 1009.00 1007.91 1006.79 1005.68 1004.59 1003.54 1002.54 1001.61 1000.76 1000.00 999.35
998.79 999.55 1000.41 1001.37 1002.38 1003.44 1004.52 1005.59 1006.64 1007.66 1008.63 1009.56 1010.42 1011.23 1011.98 1012.66 1013.27 1013.82 1014.28 1014.65 1014.93 1015.11 1015.18 1015.12 1014.95 1014.65 1014.23 1013.68 1013.03 1012.27 1011.42 1010.50 1009.52 1008.51 1007.47 1006.43 1005.41 1004.41 1003.46 1002.57 1001.75 1001.02 1000.39
Thickness
5653 5652 5651 5650 5649 5647 5646 5645 5644 5643 5642 5641 5640 5639 5637 5635 5633 5631 5628 5626 5624 5624 5623 5621 5620 5619 5618 5617 5617 5616 5616 5618 5619 5623 5626 5627 5627 5627 5627 5627 5628 5629 5630
5648 5646 5645 5643 5642 5641 5640 5638 5638 5637 5636 5635 5633 5632 5630 5628 5627 5625 5622 5620 5619 5618 5617 5616 5615 5613 5612 5612 5611 5611 5611 5611 5612 5614 5617 5618 5618 5618 5619 5619 5620 5621 5622
5642 5641 5639 5637 5635 5634 5633 5631 5631 5630 5628 5627 5626 5624 5623 5621 5620 5618 5616 5615 5613 5612 5611 5610 5609 5608 5606 5605 5604 5604 5604 5604 5605 5606 5608 5608 5609 5610 5610 5611 5612 5613 5614
5636 5634 5631 5630 5628 5626 5625 5624 5622 5621 5620 5619 5618 5616 5615 5614 5613 5611 5609 5608 5607 5606 5604 5603 5602 5601 5600 5598 5597 5597 5596 5596 5597 5598 5599 5600 5600 5601 5601 5602 5603 5604 5606
5630 5627 5625 5623 5620 5618 5616 5615 5613 5612 5611 5610 5609 5608 5607 5606 5605 5602 5601 5600 5600 5599 5597 5596 5595 5592 5590 5589 5589 5589 5588 5588 5589 5589 5590 5591 5592 5591 5591 5593 5594 5596 5598
5623 5620 5617 5614 5612 5609 5607 5606 5605 5604 5603 5602 5601 5599 5598 5597 5594 5591 5591 5592 5591 5591 5589 5588 5586 5584 5582 5580 5579 5578 5578 5579 5579 5579 5580 5581 5582 5582 5582 5583 5585 5587 5589
5616 5613 5609 5606 5603 5601 5599 5597 5596 5595 5594 5592 5591 5590 5590 5588 5584 5583 5581 5583 5583 5583 5581 5580 5579 5577 5575 5575 5572 5570 5569 5568 5568 5570 5571 5572 5572 5573 5573 5574 5576 5578 5579
5608 5604 5601 5598 5595 5593 5591 5588 5587 5585 5584 5583 5582 5581 5580 5579 5575 5574 5573 5575 5575 5575 5573 5572 5571 5570 5567 5565 5564 5564 5563 5562 5561 5561 5562 5563 5562 5562 5562 5563 5565 5567 5569
5600 5596 5593 5590 5587 5585 5582 5580 5578 5576 5575 5574 5573 5572 5572 5571 5567 5565 5564 5567 5567 5566 5565 5564 5562 5560 5557 5554 5555 5556 5555 5554 5551 5550 5550 5551 5551 5552 5552 5553 5555 5557 5561
5591 5588 5585 5582 5579 5577 5574 5572 5569 5568 5566 5564 5563 5563 5563 5562 5559 5556 5555 5558 5558 5558 5556 5555 5551 5549 5547 5544 5545 5545 5545 5545 5544 5544 5543 5544 5545 5545 5545 5546 5548 5550 5553
5583 5580 5577 5574 5571 5568 5565 5563 5561 5559 5557 5556 5555 5554 5554 5552 5550 5548 5546 5547 5548 5548 5547 5546 5543 5539 5536 5534 5534 5535 5535 5533 5534 5535 5536 5537 5537 5538 5538 5539 5540 5541 5544
5574 5571 5568 5565 5562 5559 5556 5554 5552 5549 5547 5546 5546 5545 5544 5543 5541 5539 5537 5536 5535 5536 5536 5535 5533 5529 5526 5525 5524 5524 5523 5522 5525 5526 5527 5528 5529 5529 5530 5530 5531 5531 5533
5565 5562 5559 5556 5553 5551 5548 5545 5543 5540 5538 5537 5536 5535 5535 5534 5532 5529 5528 5526 5525 5525 5526 5524 5521 5519 5517 5517 5516 5515 5514 5516 5517 5517 5518 5519 5519 5519 5520 5520 5521 5522 5523
5557 5554 5551 5548 5545 5542 5539 5537 5534 5531 5529 5527 5526 5525 5525 5524 5523 5522 5520 5519 5516 5516 5516 5514 5511 5511 5509 5509 5509 5508 5508 5508 5508 5509 5509 5510 5510 5510 5511 5512 5513 5514 5515
5548 5546 5543 5540 5537 5534 5532 5528 5525 5523 5519 5517 5516 5515 5514 5515 5513 5509 5508 5509 5508 5507 5505 5505 5505 5504 5504 5503 5503 5502 5501 5500 5500 5500 5501 5501 5501 5502 5502 5503 5504 5506 5508
5540 5537 5534 5531 5528 5525 5522 5519 5514 5511 5508 5506 5504 5503 5504 5502 5501 5499 5498 5497 5496 5495 5495 5497 5497 5496 5495 5495 5494 5493 5493 5492 5492 5491 5492 5492 5493 5494 5494 5494 5495 5498 5499
5531 5528 5525 5522 5519 5516 5514 5511 5509 5504 5500 5498 5496 5494 5493 5492 5491 5489 5488 5487 5486 5485 5487 5488 5488 5487 5486 5485 5485 5485 5484 5484 5483 5483 5484 5484 5485 5485 5486 5487 5488 5490 5491
5522 5518 5515 5512 5510 5507 5505 5503 5501 5498 5496 5493 5489 5486 5484 5482 5481 5480 5478 5478 5479 5478 5478 5478 5478 5477 5476 5476 5475 5475 5475 5475 5475 5475 5475 5476 5476 5477 5478 5479 5480 5481 5482
5512 5509 5506 5503 5500 5498 5495 5494 5492 5490 5487 5485 5482 5479 5476 5473 5472 5470 5469 5470 5470 5469 5468 5468 5468 5467 5467 5466 5465 5465 5465 5466 5466 5466 5467 5468 5469 5470 5471 5472 5472 5471 5473
5502 5498 5495 5493 5491 5489 5486 5484 5483 5481 5478 5476 5474 5471 5468 5465 5464 5462 5460 5460 5460 5459 5458 5458 5458 5457 5457 5456 5455 5455 5456 5456 5457 5458 5459 5460 5461 5463 5464 5465 5466 5466 5467
5493 5489 5485 5484 5482 5480 5478 5476 5474 5471 5469 5466 5464 5461 5457 5456 5455 5453 5452 5450 5449 5448 5448 5447 5447 5448 5447 5447 5446 5446 5446 5447 5448 5450 5451 5453 5454 5456 5458 5459 5460 5461 5462
5483 5481 5477 5475 5473 5471 5469 5467 5464 5462 5458 5456 5454 5451 5447 5446 5445 5444 5443 5441 5440 5439 5438 5438 5438 5438 5438 5439 5439 5438 5439 5440 5441 5442 5444 5446 5448 5450 5452 5454 5454 5455 5456
5474 5471 5468 5466 5464 5460 5459 5457 5456 5453 5450 5447 5444 5442 5439 5438 5436 5434 5433 5432 5431 5430 5429 5429 5429 5430 5430 5430 5430 5430 5431 5432 5433 5435 5437 5440 5442 5444 5447 5448 5449 5449 5450
5464 5462 5460 5457 5455 5453 5451 5449 5447 5445 5442 5439 5436 5433 5431 5429 5427 5426 5424 5423 5423 5422 5422 5422 5422 5422 5422 5422 5423 5423 5423 5424 5425 5428 5430 5432 5435 5437 5440 5442 5444 5445 5446
5455 5452 5450 5448 5446 5444 5442 5440 5437 5435 5433 5430 5427 5425 5423 5421 5419 5418 5417 5416 5415 5414 5414 5414 5415 5415 5415 5416 5416 5417 5417 5418 5419 5420 5423 5426 5429 5431 5433 5435 5437 5439 5441
5445 5443 5441 5439 5437 5435 5433 5431 5428 5426 5424 5422 5419 5417 5415 5414 5412 5411 5410 5409 5408 5408 5408 5408 5408 5409 5409 5410 5411 5411 5411 5412 5413 5415 5417 5420 5423 5425 5427 5429 5431 5433 5435